This demonstration page uses our WeatherBlox Daily Observations layout. Learn more.

Left ArrowRight Arrow

44.8408, -93.29828

Hourly Observations for July 28, 2019

Temp ( °F °C ) Dew Point ( °F °C ) Humidity (%) Winds ( mph kmh ) Pressure ( in mb ) Visibility ( mi km ) Precip ( " mm )
12:53 am 00:53 Partly Cloudy 75 23.9 63 17.2 66 66 SSW 3 6 29.99 1016 10 16 0.00 0.00
1:53 am 01:53 Mostly Clear 72 22.2 63 17.2 73 73 Calm 29.97 1015 10 16 0.00 0.00
2:53 am 02:53 Partly Cloudy 72 22.2 63 17.2 73 73 Calm 29.97 1015 10 16 0.00 0.00
3:53 am 03:53 Partly Cloudy 71 21.7 63 17.2 76 76 Calm 29.96 1015 10 16 0.00 0.00
4:53 am 04:53 Partly Cloudy 68 20 62 16.7 81 81 SE 5 7 29.96 1015 10 16 0.00 0.00
5:53 am 05:53 Partly Cloudy 68 20 62 16.7 81 81 ENE 6 9 29.94 1014 10 16 0.00 0.00
6:53 am 06:53 Mostly Cloudy 69 20.6 62 16.7 78 78 SSE 5 7 29.94 1014 10 16 0.00 0.00
7:53 am 07:53 Mostly Cloudy 71 21.7 62 16.7 73 73 SE 5 7 29.94 1014 10 16 0.00 0.00
8:53 am 08:53 Cloudy 73 22.8 62 16.7 69 69 SSE 7 11 29.93 1014 10 16 0.00 0.00
9:21 am 09:21 Cloudy with Nearby Thunderstorms 75 23.9 63 17.2 66 66 S 7 11 29.91 1013 10 16 0.00 0.00
9:31 am 09:31 Mostly Cloudy with Light Rain 75 23.9 63 17.2 66 66 VRB 5 7 29.93 1013 2 3 0.00 0.00
9:38 am 09:38 Cloudy with Thunderstorms 71 21.7 64 17.8 79 79 E 8 13 29.91 1013 2 3 0.10 2.54
9:53 am 09:53 Cloudy with Nearby Thunderstorms 71 21.7 66 18.9 84 84 SE 9 15 29.92 1013 10 16 0.13 3.30
10:53 am 10:53 Cloudy with Nearby Thunderstorms 73 22.8 67 19.4 81 81 ESE 7 11 29.90 1013 10 16 0.00 0.00
11:42 am 11:42 Cloudy with Light Rain 73 22.8 67 19.4 81 81 E 7 11 29.87 1011 5 8 0.01 0.25
11:53 am 11:53 Cloudy with Nearby Thunderstorms 74 23.3 68 20 82 82 ENE 9 15 29.86 1011 10 16 0.01 0.25
12:06 pm 12:06 Cloudy 74 23.3 69 20.6 85 85 ESE 7 11 29.86 1011 10 16 0.00 0.00
12:53 pm 12:53 Cloudy 76 24.4 69 20.6 79 79 E 6 9 29.87 1011 8 13 0.00 0.00
1:53 pm 13:53 Cloudy with Light Rain 76 24.4 69 20.6 79 79 E 12 19 29.84 1010 10 16 0.00 0.00
2:53 pm 14:53 Cloudy 77 25 70 21.1 79 79 S 9 15 29.83 1010 10 16 0.00 0.00
3:23 pm 15:23 Cloudy with Light Rain 77 25 70 21.1 79 79 S 7 11 29.80 1009 6 10 0.00 0.00
3:53 pm 15:53 Cloudy with Light Rain 77 25 71 21.7 82 82 S 5 7 29.81 1009 7 11 0.03 0.76
4:33 pm 16:33 Cloudy with Light Rain 76 24.4 71 21.7 85 85 S 14 22 29.76 1008 6 10 0.02 0.51
4:53 pm 16:53 Cloudy with Light Rain 75 23.9 70 21.1 84 84 S 16 26 29.78 1008 8 13 0.02 0.51
5:53 pm 17:53 Cloudy 75 23.9 68 20 79 79 SSW 12 19 29.77 1008 10 16 0.00 0.00
6:53 pm 18:53 Cloudy 75 23.9 66 18.9 74 74 SW 22 35 29.75 1007 10 16 0.00 0.00
7:53 pm 19:53 Cloudy with Light Rain 73 22.8 67 19.4 81 81 SW 17 28 29.76 1008 8 13 0.01 0.25
8:23 pm 20:23 Cloudy with Heavy Rain 72 22.2 68 20 87 87 SW 10 17 29.74 1007 4 6 0.14 3.56
8:53 pm 20:53 Mostly Cloudy 72 22.2 68 20 87 87 WSW 14 22 29.76 1008 8 13 0.16 4.06
9:53 pm 21:53 Partly Cloudy 71 21.7 68 20 90 90 W 9 15 29.77 1008 10 16 0.00 0.00
10:15 pm 22:15 Mostly Cloudy 71 21.7 68 20 90 90 WSW 12 19 29.76 1008 10 16 0.00 0.00
10:24 pm 22:24 Mostly Cloudy 71 21.7 68 20 90 90 W 13 20 29.77 1008 10 16 0.00 0.00
10:26 pm 22:26 Cloudy 71 21.7 68 20 90 90 W 10 17 29.77 1008 10 16 0.00 0.00
10:35 pm 22:35 Cloudy 71 21.7 67 19.4 87 87 WNW 15 24 29.77 1008 10 16 0.00 0.00
10:53 pm 22:53 Mostly Cloudy 70 21.1 66 18.9 87 87 WNW 10 17 29.80 1009 10 16 0.00 0.00
11:14 pm 23:14 Partly Cloudy 68 20 65 18.3 90 90 WNW 12 19 29.79 1009 10 16 0.00 0.00
11:53 pm 23:53 Partly Cloudy 67 19.4 65 18.3 93 93 NW 6 9 29.80 1009 10 16 0.00 0.00

Powered by AerisWeather